Starlink 31533

operational
NORAD ID: 59505 Int'l Des: 2024-071 Owner: SPXS Country: US Constellation: starlink
LEOCIRCULAR

Starlink 31533について

説明を読み込み中...

リアルタイム位置

3D地球を読み込み中...

次回通過

高度履歴

Altitude vs Time

uPlot chart will show altitude changes over time

軌道要素

1 59505U 24071X 25311.31131886 .00000348 00000-0 22170-4 0 9992
2 59505 43.0024 311.3659 0000336 185.5064 174.5784 15.27584311 89480
Epoch: Nov 7, 2025 • Age: 7 hours

現在のステータス

高度 486.1 km
速度 7.63 km/s
衛星直下点 42.26°N, 127.06°E
打ち上げ日 Apr 13, 2024
運用期間 1.5 years
タイプ internet

技術仕様

分類 Payload
質量 730.00 kg
乾燥質量 700.00 kg
総質量 730.00 kg
長さ 0.30 m
直径 4.10 m
スパン 29.00 m
形状 Box + pan
製造者 SPXS
バスタイプ Starlink V2M
フェーズステータス In Orbit
所有者/国 SPXS/US

大規模コンステレーション

Loading constellations...